Year,Month,Day,Hour,Minute,Value (Times are PST for temperature in C)
2009,06,16,00,00,12.10
2009,06,16,00,01,12.10
2009,06,16,00,02,12.00
2009,06,16,00,03,12.00
2009,06,16,00,04,12.00
2009,06,16,00,05,12.00
2009,06,16,00,06,12.00
2009,06,16,00,07,12.00
2009,06,16,00,08,11.90
2009,06,16,00,09,11.90
2009,06,16,00,10,11.90
2009,06,16,00,11,11.90
2009,06,16,00,12,11.90
2009,06,16,00,13,11.90
2009,06,16,00,14,11.90
2009,06,16,00,15,11.90
2009,06,16,00,16,11.90
2009,06,16,00,17,11.90
2009,06,16,00,18,11.90
2009,06,16,00,19,11.90
2009,06,16,00,20,11.90
2009,06,16,00,21,11.90
2009,06,16,00,22,11.90
2009,06,16,00,23,11.90
2009,06,16,00,24,11.90
2009,06,16,00,25,11.90
2009,06,16,00,26,11.90
2009,06,16,00,27,11.90
2009,06,16,00,28,11.80
2009,06,16,00,29,11.80
2009,06,16,00,30,11.80
2009,06,16,00,31,11.80
2009,06,16,00,32,11.70
2009,06,16,00,33,11.60
2009,06,16,00,34,11.60
2009,06,16,00,35,11.60
2009,06,16,00,36,11.40
2009,06,16,00,37,11.40
2009,06,16,00,38,11.40
2009,06,16,00,39,11.30
2009,06,16,00,40,11.30
2009,06,16,00,41,11.20
2009,06,16,00,42,11.20
2009,06,16,00,43,11.20
2009,06,16,00,44,11.10
2009,06,16,00,45,11.10
2009,06,16,00,46,11.10
2009,06,16,00,47,11.10
2009,06,16,00,48,11.10
2009,06,16,00,49,11.00
2009,06,16,00,50,10.90
2009,06,16,00,51,10.90
2009,06,16,00,52,10.90
2009,06,16,00,53,10.90
2009,06,16,00,54,10.90
2009,06,16,00,55,10.90
2009,06,16,00,56,10.90
2009,06,16,00,57,10.90
2009,06,16,00,58,11.00
2009,06,16,00,59,11.10
2009,06,16,01,00,11.10
2009,06,16,01,01,11.10
2009,06,16,01,02,11.10
2009,06,16,01,03,11.10
2009,06,16,01,04,11.10
2009,06,16,01,05,11.10
2009,06,16,01,06,11.10
2009,06,16,01,07,11.10
2009,06,16,01,08,11.10
2009,06,16,01,09,11.10
2009,06,16,01,10,11.10
2009,06,16,01,11,11.10
2009,06,16,01,12,11.00
2009,06,16,01,13,10.90
2009,06,16,01,14,10.90
2009,06,16,01,15,10.90
2009,06,16,01,16,10.90
2009,06,16,01,17,10.90
2009,06,16,01,18,10.90
2009,06,16,01,19,10.90
2009,06,16,01,20,10.90
2009,06,16,01,21,10.90
2009,06,16,01,22,10.90
2009,06,16,01,23,10.90
2009,06,16,01,24,10.80
2009,06,16,01,25,10.80
2009,06,16,01,26,10.80
2009,06,16,01,27,10.80
2009,06,16,01,28,10.80
2009,06,16,01,29,10.70
2009,06,16,01,30,10.70
2009,06,16,01,31,10.60
2009,06,16,01,32,10.60
2009,06,16,01,33,10.60
2009,06,16,01,34,10.60
2009,06,16,01,35,10.50
2009,06,16,01,36,10.40
2009,06,16,01,37,10.40
2009,06,16,01,38,10.40
2009,06,16,01,39,10.40
2009,06,16,01,40,10.40
2009,06,16,01,41,10.40
2009,06,16,01,42,10.30
2009,06,16,01,43,10.30
2009,06,16,01,44,10.30
2009,06,16,01,45,10.30
2009,06,16,01,46,10.30
2009,06,16,01,47,10.30
2009,06,16,01,48,10.30
2009,06,16,01,49,10.30
2009,06,16,01,50,10.30
2009,06,16,01,51,10.30
2009,06,16,01,52,10.30
2009,06,16,01,53,10.20
2009,06,16,01,54,10.20
2009,06,16,01,55,10.10
2009,06,16,01,56,10.10
2009,06,16,01,57,10.10
2009,06,16,01,58,10.10
2009,06,16,01,59,10.00
2009,06,16,02,00,9.90
2009,06,16,02,01,9.90
2009,06,16,02,02,9.90
2009,06,16,02,03,9.90
2009,06,16,02,04,9.90
2009,06,16,02,05,9.90
2009,06,16,02,06,9.90
2009,06,16,02,07,9.90
2009,06,16,02,08,9.80
2009,06,16,02,09,9.80
2009,06,16,02,10,9.80
2009,06,16,02,11,9.80
2009,06,16,02,12,9.80
2009,06,16,02,13,9.70
2009,06,16,02,14,9.70
2009,06,16,02,15,9.70
2009,06,16,02,16,9.70
2009,06,16,02,17,9.70
2009,06,16,02,18,9.70
2009,06,16,02,19,9.70
2009,06,16,02,20,9.70
2009,06,16,02,21,9.70
2009,06,16,02,22,9.70
2009,06,16,02,23,9.70
2009,06,16,02,24,9.70
2009,06,16,02,25,9.70
2009,06,16,02,26,9.70
2009,06,16,02,27,9.70
2009,06,16,02,28,9.70
2009,06,16,02,29,9.70
2009,06,16,02,30,9.70
2009,06,16,02,31,9.70
2009,06,16,02,32,9.70
2009,06,16,02,33,9.70
2009,06,16,02,34,9.70
2009,06,16,02,35,9.60
2009,06,16,02,36,9.60
2009,06,16,02,37,9.60
2009,06,16,02,38,9.60
2009,06,16,02,39,9.60
2009,06,16,02,40,9.60
2009,06,16,02,41,9.60
2009,06,16,02,42,9.60
2009,06,16,02,43,9.50
2009,06,16,02,44,9.50
2009,06,16,02,45,9.50
2009,06,16,02,46,9.50
2009,06,16,02,47,9.50
2009,06,16,02,48,9.50
2009,06,16,02,49,9.50
2009,06,16,02,50,9.50
2009,06,16,02,51,9.50
2009,06,16,02,52,9.50
2009,06,16,02,53,9.50
2009,06,16,02,54,9.40
2009,06,16,02,55,9.40
2009,06,16,02,56,9.40
2009,06,16,02,57,9.40
2009,06,16,02,58,9.40
2009,06,16,02,59,9.40
2009,06,16,03,00,9.40
2009,06,16,03,01,9.30
2009,06,16,03,02,9.30
2009,06,16,03,03,9.30
2009,06,16,03,04,9.30
2009,06,16,03,05,9.30
2009,06,16,03,06,9.30
2009,06,16,03,07,9.20
2009,06,16,03,08,9.20
2009,06,16,03,09,9.20
2009,06,16,03,10,9.20
2009,06,16,03,11,9.20
2009,06,16,03,12,9.20
2009,06,16,03,13,9.20
2009,06,16,03,14,9.20
2009,06,16,03,15,9.20
2009,06,16,03,16,9.20
2009,06,16,03,17,9.20
2009,06,16,03,18,9.20
2009,06,16,03,19,9.20
2009,06,16,03,20,9.20
2009,06,16,03,21,9.20
2009,06,16,03,22,9.20
2009,06,16,03,23,9.20
2009,06,16,03,24,9.20
2009,06,16,03,25,9.20
2009,06,16,03,26,9.20
2009,06,16,03,27,9.20
2009,06,16,03,28,9.20
2009,06,16,03,29,9.20
2009,06,16,03,30,9.20
2009,06,16,03,31,9.20
2009,06,16,03,32,9.20
2009,06,16,03,33,9.20
2009,06,16,03,34,9.20
2009,06,16,03,35,9.20
2009,06,16,03,36,9.20
2009,06,16,03,37,9.20
2009,06,16,03,38,9.20
2009,06,16,03,39,9.10
2009,06,16,03,40,9.10
2009,06,16,03,41,9.10
2009,06,16,03,42,9.10
2009,06,16,03,43,9.10
2009,06,16,03,44,9.10
2009,06,16,03,45,9.10
2009,06,16,03,46,9.10
2009,06,16,03,47,9.10
2009,06,16,03,48,9.00
2009,06,16,03,49,9.00
2009,06,16,03,50,9.00
2009,06,16,03,51,9.00
2009,06,16,03,52,9.00
2009,06,16,03,53,9.00
2009,06,16,03,54,9.00
2009,06,16,03,55,9.00
2009,06,16,03,56,9.00
2009,06,16,03,57,9.00
2009,06,16,03,58,9.00
2009,06,16,03,59,9.00
2009,06,16,04,00,9.10
2009,06,16,04,01,9.10
2009,06,16,04,02,9.10
2009,06,16,04,03,9.10
2009,06,16,04,04,9.10
2009,06,16,04,05,9.10
2009,06,16,04,06,9.10
2009,06,16,04,07,9.10
2009,06,16,04,08,9.10
2009,06,16,04,09,9.10
2009,06,16,04,10,9.10
2009,06,16,04,11,9.10
2009,06,16,04,12,9.10
2009,06,16,04,13,9.00
2009,06,16,04,14,9.00
2009,06,16,04,15,9.00
2009,06,16,04,16,9.00
2009,06,16,04,17,9.00
2009,06,16,04,18,9.00
2009,06,16,04,19,9.00
2009,06,16,04,20,9.00
2009,06,16,04,21,9.00
2009,06,16,04,22,9.00
2009,06,16,04,23,9.00
2009,06,16,04,24,9.00
2009,06,16,04,25,9.00
2009,06,16,04,26,9.00
2009,06,16,04,27,9.00
2009,06,16,04,28,9.00
2009,06,16,04,29,9.00
2009,06,16,04,30,9.00
2009,06,16,04,31,9.00
2009,06,16,04,32,9.00
2009,06,16,04,33,9.00
2009,06,16,04,34,9.00
2009,06,16,04,35,9.10
2009,06,16,04,36,9.10
2009,06,16,04,37,9.10
2009,06,16,04,38,9.10
2009,06,16,04,39,9.10
2009,06,16,04,40,9.10
2009,06,16,04,41,9.10
2009,06,16,04,42,9.10
2009,06,16,04,43,9.20
2009,06,16,04,44,9.20
2009,06,16,04,45,9.20
2009,06,16,04,46,9.20
2009,06,16,04,47,9.20
2009,06,16,04,48,9.20
2009,06,16,04,49,9.20
2009,06,16,04,50,9.20
2009,06,16,04,51,9.20
2009,06,16,04,52,9.20
2009,06,16,04,53,9.30
2009,06,16,04,54,9.30
2009,06,16,04,55,9.30
2009,06,16,04,56,9.30
2009,06,16,04,57,9.30
2009,06,16,04,58,9.30
2009,06,16,04,59,9.40
2009,06,16,05,00,9.40
2009,06,16,05,01,9.40
2009,06,16,05,02,9.40
2009,06,16,05,03,9.50
2009,06,16,05,04,9.50
2009,06,16,05,05,9.50
2009,06,16,05,06,9.50
2009,06,16,05,07,9.50
2009,06,16,05,08,9.50
2009,06,16,05,09,9.50
2009,06,16,05,10,9.50
2009,06,16,05,11,9.60
2009,06,16,05,12,9.60
2009,06,16,05,13,9.60
2009,06,16,05,14,9.60
2009,06,16,05,15,9.50
2009,06,16,05,16,9.50
2009,06,16,05,17,9.50
2009,06,16,05,18,9.50
2009,06,16,05,19,9.50
2009,06,16,05,20,9.50
2009,06,16,05,21,9.50
2009,06,16,05,22,9.50
2009,06,16,05,23,9.50
2009,06,16,05,24,9.50
2009,06,16,05,25,9.50
2009,06,16,05,26,9.50
2009,06,16,05,27,9.50
2009,06,16,05,28,9.50
2009,06,16,05,29,9.50
2009,06,16,05,30,9.50
2009,06,16,05,31,9.50
2009,06,16,05,32,9.50
2009,06,16,05,33,9.50
2009,06,16,05,34,9.50
2009,06,16,05,35,9.60
2009,06,16,05,36,9.60
2009,06,16,05,37,9.60
2009,06,16,05,38,9.60
2009,06,16,05,39,9.60
2009,06,16,05,40,9.60
2009,06,16,05,41,9.60
2009,06,16,05,42,9.60
2009,06,16,05,43,9.60
2009,06,16,05,44,9.60
2009,06,16,05,45,9.60
2009,06,16,05,46,9.60
2009,06,16,05,47,9.60
2009,06,16,05,48,9.60
2009,06,16,05,49,9.60
2009,06,16,05,50,9.60
2009,06,16,05,51,9.60
2009,06,16,05,52,9.60
2009,06,16,05,53,9.60
2009,06,16,05,54,9.60
2009,06,16,05,55,9.60
2009,06,16,05,56,9.60
2009,06,16,05,57,9.70
2009,06,16,05,58,9.70
2009,06,16,05,59,9.70
2009,06,16,06,00,9.70
2009,06,16,06,01,9.70
2009,06,16,06,02,9.70
2009,06,16,06,03,9.70
2009,06,16,06,04,9.70
2009,06,16,06,05,9.70
2009,06,16,06,06,9.70
2009,06,16,06,07,9.70
2009,06,16,06,08,9.70
2009,06,16,06,09,9.70
2009,06,16,06,10,9.70
2009,06,16,06,11,9.70
2009,06,16,06,12,9.70
2009,06,16,06,13,9.70
2009,06,16,06,14,9.70
2009,06,16,06,15,9.70
2009,06,16,06,16,9.70
2009,06,16,06,17,9.70
2009,06,16,06,18,9.70
2009,06,16,06,19,9.70
2009,06,16,06,20,9.70
2009,06,16,06,21,9.70
2009,06,16,06,22,9.70
2009,06,16,06,23,9.70
2009,06,16,06,24,9.70
2009,06,16,06,25,9.70
2009,06,16,06,26,9.70
2009,06,16,06,27,9.70
2009,06,16,06,28,9.70
2009,06,16,06,29,9.70
2009,06,16,06,30,9.70
2009,06,16,06,31,9.70
2009,06,16,06,32,9.70
2009,06,16,06,33,9.70
2009,06,16,06,34,9.70
2009,06,16,06,35,9.70
2009,06,16,06,36,9.80
2009,06,16,06,37,9.80
2009,06,16,06,38,9.80
2009,06,16,06,39,9.80
2009,06,16,06,40,9.80
2009,06,16,06,41,9.80
2009,06,16,06,42,9.80
2009,06,16,06,43,9.80
2009,06,16,06,44,9.90
2009,06,16,06,45,9.90
2009,06,16,06,46,9.90
2009,06,16,06,47,9.90
2009,06,16,06,48,9.90
2009,06,16,06,49,10.00
2009,06,16,06,50,10.10
2009,06,16,06,51,10.10
2009,06,16,06,52,10.10
2009,06,16,06,53,10.10
2009,06,16,06,54,10.20
2009,06,16,06,55,10.20
2009,06,16,06,56,10.20
2009,06,16,06,57,10.30
2009,06,16,06,58,10.30
2009,06,16,06,59,10.30
2009,06,16,07,00,10.40
2009,06,16,07,01,10.40
2009,06,16,07,02,10.40
2009,06,16,07,03,10.40
2009,06,16,07,04,10.40
2009,06,16,07,05,10.50
2009,06,16,07,06,10.60
2009,06,16,07,07,10.60
2009,06,16,07,08,10.60
2009,06,16,07,09,10.60
2009,06,16,07,10,10.60
2009,06,16,07,11,10.60
2009,06,16,07,12,10.70
2009,06,16,07,13,10.70
2009,06,16,07,14,10.70
2009,06,16,07,15,10.70
2009,06,16,07,16,10.70
2009,06,16,07,17,10.70
2009,06,16,07,18,10.70
2009,06,16,07,19,10.70
2009,06,16,07,20,10.70
2009,06,16,07,21,10.70
2009,06,16,07,22,10.70
2009,06,16,07,23,10.70
2009,06,16,07,24,10.70
2009,06,16,07,25,10.70
2009,06,16,07,26,10.70
2009,06,16,07,27,10.70
2009,06,16,07,28,10.70
2009,06,16,07,29,10.70
2009,06,16,07,30,10.70
2009,06,16,07,31,10.70
2009,06,16,07,32,10.70
2009,06,16,07,33,10.60
2009,06,16,07,34,10.60
2009,06,16,07,35,10.60
2009,06,16,07,36,10.60
2009,06,16,07,37,10.60
2009,06,16,07,38,10.60
2009,06,16,07,39,10.60
2009,06,16,07,40,10.60
2009,06,16,07,41,10.60
2009,06,16,07,42,10.60
2009,06,16,07,43,10.60
2009,06,16,07,44,10.60
2009,06,16,07,45,10.60
2009,06,16,07,46,10.60
2009,06,16,07,47,10.60
2009,06,16,07,48,10.70
2009,06,16,07,49,10.70
2009,06,16,07,50,10.70
2009,06,16,07,51,10.70
2009,06,16,07,52,10.70
2009,06,16,07,53,10.70
2009,06,16,07,54,10.70
2009,06,16,07,55,10.70
2009,06,16,07,56,10.70
2009,06,16,07,57,10.70
2009,06,16,07,58,10.70
2009,06,16,07,59,10.70
2009,06,16,08,00,10.70
2009,06,16,08,01,10.70
2009,06,16,08,02,10.70
2009,06,16,08,03,10.70
2009,06,16,08,04,10.80
2009,06,16,08,05,10.80
2009,06,16,08,06,10.90
2009,06,16,08,07,10.90
2009,06,16,08,08,10.90
2009,06,16,08,09,10.90
2009,06,16,08,10,10.90
2009,06,16,08,11,10.90
2009,06,16,08,12,10.90
2009,06,16,08,13,11.10
2009,06,16,08,14,11.10
2009,06,16,08,15,11.10
2009,06,16,08,16,11.10
2009,06,16,08,17,11.10
2009,06,16,08,18,11.10
2009,06,16,08,19,11.10
2009,06,16,08,20,11.10
2009,06,16,08,21,11.10
2009,06,16,08,22,11.20
2009,06,16,08,23,11.20
2009,06,16,08,24,11.20
2009,06,16,08,25,11.20
2009,06,16,08,26,11.20
2009,06,16,08,27,11.20
2009,06,16,08,28,11.30
2009,06,16,08,29,11.30
2009,06,16,08,30,11.40
2009,06,16,08,31,11.40
2009,06,16,08,32,11.40
2009,06,16,08,33,11.40
2009,06,16,08,34,11.40
2009,06,16,08,35,11.50
2009,06,16,08,36,11.60
2009,06,16,08,37,11.60
2009,06,16,08,38,11.60
2009,06,16,08,39,11.60
2009,06,16,08,40,11.70
2009,06,16,08,41,11.70
2009,06,16,08,42,11.70
2009,06,16,08,43,11.80
2009,06,16,08,44,11.80
2009,06,16,08,45,11.80
2009,06,16,08,46,11.80
2009,06,16,08,47,11.80
2009,06,16,08,48,11.80
2009,06,16,08,49,11.80
2009,06,16,08,50,11.80
2009,06,16,08,51,11.80
2009,06,16,08,52,11.90
2009,06,16,08,53,11.90
2009,06,16,08,54,11.90
2009,06,16,08,55,11.90
2009,06,16,08,56,11.90
2009,06,16,08,57,11.90
2009,06,16,08,58,12.00
2009,06,16,08,59,12.00
2009,06,16,09,00,12.00
2009,06,16,09,01,12.10
2009,06,16,09,02,12.10
2009,06,16,09,03,12.10
2009,06,16,09,04,12.00
2009,06,16,09,05,12.00
2009,06,16,09,06,12.00
2009,06,16,09,07,12.00
2009,06,16,09,08,12.00
2009,06,16,09,09,12.00
2009,06,16,09,10,12.10
2009,06,16,09,11,12.20
2009,06,16,09,12,12.20
2009,06,16,09,13,12.30
2009,06,16,09,14,12.30
2009,06,16,09,15,12.30
2009,06,16,09,16,12.40
2009,06,16,09,17,12.40
2009,06,16,09,18,12.40
2009,06,16,09,19,12.40
2009,06,16,09,20,12.50
2009,06,16,09,21,12.60
2009,06,16,09,22,12.60
2009,06,16,09,23,12.70
2009,06,16,09,24,12.70
2009,06,16,09,25,12.60
2009,06,16,09,26,12.60
2009,06,16,09,27,12.60
2009,06,16,09,28,12.70
2009,06,16,09,29,12.80
2009,06,16,09,30,12.80
2009,06,16,09,31,12.80
2009,06,16,09,32,12.80
2009,06,16,09,33,12.90
2009,06,16,09,34,12.90
2009,06,16,09,35,13.00
2009,06,16,09,36,13.10
2009,06,16,09,37,13.20
2009,06,16,09,38,13.20
2009,06,16,09,39,13.20
2009,06,16,09,40,13.20
2009,06,16,09,41,13.30
2009,06,16,09,42,13.30
2009,06,16,09,43,13.30
2009,06,16,09,44,13.30
2009,06,16,09,45,13.30
2009,06,16,09,46,13.40
2009,06,16,09,47,13.50
2009,06,16,09,48,13.50
2009,06,16,09,49,13.60
2009,06,16,09,50,13.50
2009,06,16,09,51,13.50
2009,06,16,09,52,13.40
2009,06,16,09,53,13.30
2009,06,16,09,54,13.30
2009,06,16,09,55,13.30
2009,06,16,09,56,13.20
2009,06,16,09,57,13.10
2009,06,16,09,58,13.10
2009,06,16,09,59,13.10
2009,06,16,10,00,13.10
2009,06,16,10,01,13.10
2009,06,16,10,02,13.00
2009,06,16,10,03,13.00
2009,06,16,10,04,13.00
2009,06,16,10,05,13.00
2009,06,16,10,06,13.00
2009,06,16,10,07,13.00
2009,06,16,10,08,13.10
2009,06,16,10,09,13.10
2009,06,16,10,10,13.20
2009,06,16,10,11,13.20
2009,06,16,10,12,13.30
2009,06,16,10,13,13.30
2009,06,16,10,14,13.30
2009,06,16,10,15,13.30
2009,06,16,10,16,13.30
2009,06,16,10,17,13.30
2009,06,16,10,18,13.30
2009,06,16,10,19,13.30
2009,06,16,10,20,13.30
2009,06,16,10,21,13.30
2009,06,16,10,22,13.30
2009,06,16,10,23,13.30
2009,06,16,10,24,13.30
2009,06,16,10,25,13.30
2009,06,16,10,26,13.20
2009,06,16,10,27,13.10
2009,06,16,10,28,13.00
2009,06,16,10,29,13.00
2009,06,16,10,30,12.90
2009,06,16,10,31,12.80
2009,06,16,10,32,12.80
2009,06,16,10,33,12.80
2009,06,16,10,34,12.70
2009,06,16,10,35,12.70
2009,06,16,10,36,12.60
2009,06,16,10,37,12.60
2009,06,16,10,38,12.60
2009,06,16,10,39,12.60
2009,06,16,10,40,12.60
2009,06,16,10,41,12.70
2009,06,16,10,42,12.70
2009,06,16,10,43,12.70
2009,06,16,10,44,12.70
2009,06,16,10,45,12.80
2009,06,16,10,46,12.80
2009,06,16,10,47,12.80
2009,06,16,10,48,12.90
2009,06,16,10,49,12.90
2009,06,16,10,50,13.00
2009,06,16,10,51,13.00
2009,06,16,10,52,13.00
2009,06,16,10,53,13.10
2009,06,16,10,54,13.20
2009,06,16,10,55,13.10
2009,06,16,10,56,13.10
2009,06,16,10,57,13.20
2009,06,16,10,58,13.20
2009,06,16,10,59,13.30
2009,06,16,11,00,13.30
2009,06,16,11,01,13.40
2009,06,16,11,02,13.50
2009,06,16,11,03,13.60
2009,06,16,11,04,13.70
2009,06,16,11,05,13.70
2009,06,16,11,06,13.70
2009,06,16,11,07,13.80
2009,06,16,11,08,13.80
2009,06,16,11,09,13.80
2009,06,16,11,10,13.80
2009,06,16,11,11,13.80
2009,06,16,11,12,13.80
2009,06,16,11,13,13.90
2009,06,16,11,14,13.90
2009,06,16,11,15,13.90
2009,06,16,11,16,13.90
2009,06,16,11,17,13.90
2009,06,16,11,18,13.90
2009,06,16,11,19,13.90
2009,06,16,11,20,13.90
2009,06,16,11,21,13.90
2009,06,16,11,22,14.00
2009,06,16,11,23,13.90
2009,06,16,11,24,14.00
2009,06,16,11,25,14.00
2009,06,16,11,26,14.10
2009,06,16,11,27,14.20
2009,06,16,11,28,14.20
2009,06,16,11,29,14.40
2009,06,16,11,30,14.50
2009,06,16,11,31,14.60
2009,06,16,11,32,14.70
2009,06,16,11,33,14.80
2009,06,16,11,34,14.80
2009,06,16,11,35,14.90
2009,06,16,11,36,15.00
2009,06,16,11,37,15.00
2009,06,16,11,38,15.10
2009,06,16,11,39,15.20
2009,06,16,11,40,15.30
2009,06,16,11,41,15.40
2009,06,16,11,42,15.40
2009,06,16,11,43,15.30
2009,06,16,11,44,15.30
2009,06,16,11,45,15.30
2009,06,16,11,46,15.30
2009,06,16,11,47,15.20
2009,06,16,11,48,15.20
2009,06,16,11,49,15.10
2009,06,16,11,50,15.10
2009,06,16,11,51,15.10
2009,06,16,11,52,15.10
2009,06,16,11,53,15.10
2009,06,16,11,54,15.20
2009,06,16,11,55,15.40
2009,06,16,11,56,15.50
2009,06,16,11,57,15.60
2009,06,16,11,58,15.80
2009,06,16,11,59,15.90
2009,06,16,12,00,16.10
2009,06,16,12,01,16.20
2009,06,16,12,02,16.30
2009,06,16,12,03,16.50
2009,06,16,12,04,16.70
2009,06,16,12,05,16.80
2009,06,16,12,06,16.90
2009,06,16,12,07,17.00
2009,06,16,12,08,17.10
2009,06,16,12,09,17.30
2009,06,16,12,10,17.30
2009,06,16,12,11,17.40
2009,06,16,12,12,17.40
2009,06,16,12,13,17.50
2009,06,16,12,14,17.60
2009,06,16,12,15,17.60
2009,06,16,12,16,17.70
2009,06,16,12,17,17.70
2009,06,16,12,18,17.70
2009,06,16,12,19,17.70
2009,06,16,12,20,17.80
2009,06,16,12,21,17.80
2009,06,16,12,22,17.80
2009,06,16,12,23,17.80
2009,06,16,12,24,17.80
2009,06,16,12,25,17.70
2009,06,16,12,26,17.60
2009,06,16,12,27,17.60
2009,06,16,12,28,17.50
2009,06,16,12,29,17.40
2009,06,16,12,30,17.30
2009,06,16,12,31,17.20
2009,06,16,12,32,17.10
2009,06,16,12,33,17.00
2009,06,16,12,34,16.90
2009,06,16,12,35,16.80
2009,06,16,12,36,16.80
2009,06,16,12,37,16.70
2009,06,16,12,38,16.70
2009,06,16,12,39,16.80
2009,06,16,12,40,16.80
2009,06,16,12,41,16.90
2009,06,16,12,42,17.00
2009,06,16,12,43,17.10
2009,06,16,12,44,17.20
2009,06,16,12,45,17.30
2009,06,16,12,46,17.30
2009,06,16,12,47,17.40
2009,06,16,12,48,17.50
2009,06,16,12,49,17.70
2009,06,16,12,50,17.80
2009,06,16,12,51,17.80
2009,06,16,12,52,17.80
2009,06,16,12,53,17.80
2009,06,16,12,54,17.80
2009,06,16,12,55,17.80
2009,06,16,12,56,17.60
2009,06,16,12,57,17.50
2009,06,16,12,58,17.30
2009,06,16,12,59,17.30
2009,06,16,13,00,17.30
2009,06,16,13,01,17.30
2009,06,16,13,02,17.30
2009,06,16,13,03,17.40
2009,06,16,13,04,17.40
2009,06,16,13,05,17.40
2009,06,16,13,06,17.40
2009,06,16,13,07,17.30
2009,06,16,13,08,17.30
2009,06,16,13,09,17.30
2009,06,16,13,10,17.30
2009,06,16,13,11,17.30
2009,06,16,13,12,17.30
2009,06,16,13,13,17.30
2009,06,16,13,14,17.30
2009,06,16,13,15,17.30
2009,06,16,13,16,17.40
2009,06,16,13,17,17.40
2009,06,16,13,18,17.50
2009,06,16,13,19,17.60
2009,06,16,13,20,17.70
2009,06,16,13,21,17.70
2009,06,16,13,22,17.70
2009,06,16,13,23,17.60
2009,06,16,13,24,17.50
2009,06,16,13,25,17.50
2009,06,16,13,26,17.50
2009,06,16,13,27,17.50
2009,06,16,13,28,17.50
2009,06,16,13,29,17.50
2009,06,16,13,30,17.50
2009,06,16,13,31,17.50
2009,06,16,13,32,17.50
2009,06,16,13,33,17.50
2009,06,16,13,34,17.50
2009,06,16,13,35,17.50
2009,06,16,13,36,17.60
2009,06,16,13,37,17.70
2009,06,16,13,38,17.70
2009,06,16,13,39,17.70
2009,06,16,13,40,17.60
2009,06,16,13,41,17.60
2009,06,16,13,42,17.50
2009,06,16,13,43,17.40
2009,06,16,13,44,17.40
2009,06,16,13,45,17.40
2009,06,16,13,46,17.50
2009,06,16,13,47,17.50
2009,06,16,13,48,17.50
2009,06,16,13,49,17.50
2009,06,16,13,50,17.50
2009,06,16,13,51,17.60
2009,06,16,13,52,17.60
2009,06,16,13,53,17.60
2009,06,16,13,54,17.60
2009,06,16,13,55,17.70
2009,06,16,13,56,17.70
2009,06,16,13,57,17.70
2009,06,16,13,58,17.80
2009,06,16,13,59,17.70
2009,06,16,14,00,17.70
2009,06,16,14,01,17.70
2009,06,16,14,02,17.70
2009,06,16,14,03,17.70
2009,06,16,14,04,17.70
2009,06,16,14,05,17.70
2009,06,16,14,06,17.60
2009,06,16,14,07,17.60
2009,06,16,14,08,17.70
2009,06,16,14,09,17.70
2009,06,16,14,10,17.70
2009,06,16,14,11,17.60
2009,06,16,14,12,17.70
2009,06,16,14,13,17.70
2009,06,16,14,14,17.80
2009,06,16,14,15,17.80
2009,06,16,14,16,17.90
2009,06,16,14,17,17.90
2009,06,16,14,18,17.90
2009,06,16,14,19,18.00
2009,06,16,14,20,18.20
2009,06,16,14,21,18.20
2009,06,16,14,22,18.40
2009,06,16,14,23,18.50
2009,06,16,14,24,18.50
2009,06,16,14,25,18.60
2009,06,16,14,26,18.60
2009,06,16,14,27,18.60
2009,06,16,14,28,18.60
2009,06,16,14,29,18.60
2009,06,16,14,30,18.60
2009,06,16,14,31,18.60
2009,06,16,14,32,18.60
2009,06,16,14,33,18.70
2009,06,16,14,34,18.70
2009,06,16,14,35,18.70
2009,06,16,14,36,18.70
2009,06,16,14,37,18.70
2009,06,16,14,38,18.70
2009,06,16,14,39,18.80
2009,06,16,14,40,18.80
2009,06,16,14,41,18.70
2009,06,16,14,42,18.80
2009,06,16,14,43,18.80
2009,06,16,14,44,18.90
2009,06,16,14,45,18.90
2009,06,16,14,46,18.90
2009,06,16,14,47,18.90
2009,06,16,14,48,18.90
2009,06,16,14,49,18.90
2009,06,16,14,50,18.90
2009,06,16,14,51,18.90
2009,06,16,14,52,18.90
2009,06,16,14,53,18.90
2009,06,16,14,54,18.90
2009,06,16,14,55,18.80
2009,06,16,14,56,18.80
2009,06,16,14,57,18.80
2009,06,16,14,58,18.80
2009,06,16,14,59,18.70
2009,06,16,15,00,18.70
2009,06,16,15,01,18.70
2009,06,16,15,02,18.70
2009,06,16,15,03,18.60
2009,06,16,15,04,18.60
2009,06,16,15,05,18.60
2009,06,16,15,06,18.60
2009,06,16,15,07,18.60
2009,06,16,15,08,18.60
2009,06,16,15,09,18.50
2009,06,16,15,10,18.50
2009,06,16,15,11,18.60
2009,06,16,15,12,18.60
2009,06,16,15,13,18.60
2009,06,16,15,14,18.60
2009,06,16,15,15,18.60
2009,06,16,15,16,18.60
2009,06,16,15,17,18.60
2009,06,16,15,18,18.60
2009,06,16,15,19,18.60
2009,06,16,15,20,18.60
2009,06,16,15,21,18.60
2009,06,16,15,22,18.70
2009,06,16,15,23,18.70
2009,06,16,15,24,18.70
2009,06,16,15,25,18.80
2009,06,16,15,26,18.90
2009,06,16,15,27,18.90
2009,06,16,15,28,19.00
2009,06,16,15,29,19.10
2009,06,16,15,30,19.10
2009,06,16,15,31,19.10
2009,06,16,15,32,19.10
2009,06,16,15,33,19.10
2009,06,16,15,34,19.00
2009,06,16,15,35,18.90
2009,06,16,15,36,19.00
2009,06,16,15,37,19.10
2009,06,16,15,38,19.10
2009,06,16,15,39,19.10
2009,06,16,15,40,18.90
2009,06,16,15,41,18.90
2009,06,16,15,42,18.90
2009,06,16,15,43,18.90
2009,06,16,15,44,18.80
2009,06,16,15,45,18.80
2009,06,16,15,46,18.80
2009,06,16,15,47,18.80
2009,06,16,15,48,18.80
2009,06,16,15,49,18.80
2009,06,16,15,50,18.70
2009,06,16,15,51,18.70
2009,06,16,15,52,18.70
2009,06,16,15,53,18.70
2009,06,16,15,54,18.70
2009,06,16,15,55,18.70
2009,06,16,15,56,18.80
2009,06,16,15,57,18.80
2009,06,16,15,58,18.80
2009,06,16,15,59,18.80
2009,06,16,16,00,18.70
2009,06,16,16,01,18.70
2009,06,16,16,02,18.70
2009,06,16,16,03,18.70
2009,06,16,16,04,18.70
2009,06,16,16,05,18.70
2009,06,16,16,06,18.70
2009,06,16,16,07,18.70
2009,06,16,16,08,18.70
2009,06,16,16,09,18.60
2009,06,16,16,10,18.50
2009,06,16,16,11,18.50
2009,06,16,16,12,18.50
2009,06,16,16,13,18.50
2009,06,16,16,14,18.50
2009,06,16,16,15,18.50
2009,06,16,16,16,18.50
2009,06,16,16,17,18.50
2009,06,16,16,18,18.50
2009,06,16,16,19,18.40
2009,06,16,16,20,18.40
2009,06,16,16,21,18.40
2009,06,16,16,22,18.40
2009,06,16,16,23,18.40
2009,06,16,16,24,18.40
2009,06,16,16,25,18.40
2009,06,16,16,26,18.40
2009,06,16,16,27,18.50
2009,06,16,16,28,18.50
2009,06,16,16,29,18.40
2009,06,16,16,30,18.40
2009,06,16,16,31,18.40
2009,06,16,16,32,18.40
2009,06,16,16,33,18.40
2009,06,16,16,34,18.30
2009,06,16,16,35,18.30
2009,06,16,16,36,18.30
2009,06,16,16,37,18.30
2009,06,16,16,38,18.30
2009,06,16,16,39,18.30
2009,06,16,16,40,18.40
2009,06,16,16,41,18.40
2009,06,16,16,42,18.40
2009,06,16,16,43,18.40
2009,06,16,16,44,18.40
2009,06,16,16,45,18.40
2009,06,16,16,46,18.40
2009,06,16,16,47,18.40
2009,06,16,16,48,18.40
2009,06,16,16,49,18.40
2009,06,16,16,50,18.40
2009,06,16,16,51,18.40
2009,06,16,16,52,18.40
2009,06,16,16,53,18.40
2009,06,16,16,54,18.40
2009,06,16,16,55,18.40
2009,06,16,16,56,18.40
2009,06,16,16,57,18.30
2009,06,16,16,58,18.30
2009,06,16,16,59,18.20
2009,06,16,17,00,18.20
2009,06,16,17,01,18.20
2009,06,16,17,02,18.20
2009,06,16,17,03,18.20
2009,06,16,17,04,18.20
2009,06,16,17,05,18.20
2009,06,16,17,06,18.20
2009,06,16,17,07,18.20
2009,06,16,17,08,18.20
2009,06,16,17,09,18.10
2009,06,16,17,10,18.10
2009,06,16,17,11,18.10
2009,06,16,17,12,18.10
2009,06,16,17,13,18.10
2009,06,16,17,14,18.00
2009,06,16,17,15,17.90
2009,06,16,17,16,17.90
2009,06,16,17,17,18.00
2009,06,16,17,18,18.10
2009,06,16,17,19,18.10
2009,06,16,17,20,18.10
2009,06,16,17,21,18.10
2009,06,16,17,22,18.10
2009,06,16,17,23,18.10
2009,06,16,17,24,18.20
2009,06,16,17,25,18.20
2009,06,16,17,26,18.20
2009,06,16,17,27,18.20
2009,06,16,17,28,18.20
2009,06,16,17,29,18.20
2009,06,16,17,30,18.20
2009,06,16,17,31,18.20
2009,06,16,17,32,18.20